Location: Équennes
(49.7375°N, 1.9622°E)
Time: 07:14:05
(UTC+00:00)

Cosmos 1536 Rocket - Visible Passes

Search period start: 24 September 2023 00:00
Search period end: 04 October 2023 00:00
Orbit: 603 x 630 km, 82.5° (Epoch: 23 September)

Date Brightness Start Highest point End Pass type
(mag) Time Alt. Az. Time Alt. Az. Time Alt. Az.
24 Sep 6.4 21:39:20 10° NNE 21:39:35 11° NNE 21:39:35 11° NNE visible
25 Sep 6.5 21:55:37 10° N 21:56:02 12° N 21:56:02 12° N visible
26 Sep 6.6 22:12:05 10° N 22:12:29 12° N 22:12:29 12° N visible
27 Sep 6.7 22:28:42 10° NNW 22:28:57 11° NNW 22:28:57 11° NNW visible
28 Sep 6.4 21:08:05 10° NNE 21:08:19 11° NNE 21:08:19 11° NNE visible
29 Sep 6.4 21:24:21 10° N 21:24:47 12° N 21:24:47 12° N visible
30 Sep 6.5 21:40:48 10° N 21:41:16 13° N 21:41:16 13° N visible
01 Oct 6.6 21:57:24 10° NNW 21:57:45 12° NNW 21:57:45 12° NNW visible
02 Oct 6.2 20:36:48 10° NNE 20:37:08 11° NNE 20:37:08 11° NNE visible
02 Oct 6.8 22:14:11 10° NNW 22:14:14 10° NNW 22:14:14 10° NNW visible
03 Oct 6.2 20:53:03 10° N 20:53:38 13° N 20:53:38 13° N visible
